Regional Weather Roundup
Issued by NWS

Home | Current Version | Previous Version | Text Only | Print | Product List | Glossary Off
Versions: 1 2 3 4 5 6 7 8 9 10 11 12 13 14 15 16 17 18 19 20 21 22 23 24 25 26 27 28

000
ASUS45 KTFX 210410
RWRMT
MONTANA REGIONAL WEATHER ROUNDUP
NATIONAL WEATHER SERVICE GREAT FALLS MT
900 PM MST FRI JAN 20 2017

NOTE: "FAIR" INDICATES FEW OR NO CLOUDS BELOW 12000 FEET WITH NO
SIGNIFICANT WEATHER AND/OR OBSTRUCTIONS TO VISIBILITY.

MTZ001>007-043-210500-
WEST OF THE DIVIDE

CITY           SKY/WX    TMP DP  RH WIND       PRES   REMARKS
KALISPELL      PTCLDY    14  13  95 W3        29.31S
MISSOULA       FOG       25  24  96 E6        29.32S VSB 1/4 WCI  18
BUTTE          CLOUDY    16   8  71 CALM      29.32S
MULLAN PASS    CLOUDY    24  22  91 SE9       29.21F WCI  14
ANACONDA         N/A     23  16  74 S7        29.31S WCI  15
DEER LODGE       N/A     27  16  63 SW6       29.34S WCI  20
EUREKA           N/A     25  21  86 CALM      29.34R
HAMILTON         N/A     23  21  93 CALM      29.31S
$$

MTZ008-052>055-210500-
SOUTHWEST MONTANA

CITY           SKY/WX    TMP DP  RH WIND       PRES   REMARKS
BOZEMAN        CLOUDY    16  11  80 SW6       29.35F WCI   7
DILLON         CLOUDY    21   8  57 E3        29.31F
W YELLOWSTONE  CLOUDY    18  18 100 CALM      29.35F
ENNIS          CLEAR     23  16  74 S14       29.37F WCI  11
$$

MTZ009-010-012-014-046-048-049-054-210500-
EAST SLOPES AND CENTRAL MONTANA

CITY           SKY/WX    TMP DP  RH WIND       PRES   REMARKS
CUT BANK       CLEAR     26  20  77 SE8       29.31F WCI  18
GREAT FALLS    CLEAR     28  18  66 S8        29.32F WCI  20
MALMSTROM AFB  CLEAR     26  20  79 SW7       29.33F WCI  18
HELENA         CLEAR     20  16  84 CALM      29.34S
AUGUSTA          N/A     27  20  75 MISG      29.30F
BOWMANS CRNR     N/A     25  19  77 S9        29.29F WCI  16
CHOTEAU          N/A     30  23  74 S6        29.33S WCI  24
POWER            N/A     22  17  81 CALM      29.31F
RAYNESFORD       N/A     26  18  73 CALM      29.33F
ULM              N/A     26  19  74 MISG      29.33F
$$

MTZ011-013-016-021-045-047-050-051-210500-
NORTH CENTRAL MONTANA

CITY           SKY/WX    TMP DP  RH WIND       PRES   REMARKS
HAVRE          CLEAR     24  21  88 CALM      29.36S
LEWISTOWN      CLEAR     24  18  77 E6        29.34F WCI  17
CHINOOK          N/A     27  25  93 CALM      29.37S
DENTON           N/A     27  23  84 CALM      29.31F
FORT BENTON      N/A     34  27  75 MISG      29.36F
GEYSER           N/A     26  19  76 SW12      29.33F WCI  15
GRASS RANGE      N/A     27  23  85 CALM      29.33F
JUDITH GAP       N/A     29  18  63 SW7       29.34F WCI  22
ROY              N/A     31  26  80 MISG      29.34F
STANFORD         N/A     27  19  71 SW9       29.33F WCI  18
WINIFRED         N/A     31  23  73 SE7       29.33F WCI  24
$$

MTZ017>020-022>027-061-062-210500-
NORTHEAST MONTANA

CITY           SKY/WX    TMP DP  RH WIND       PRES   REMARKS
GLASGOW        CLOUDY    30  27  88 W7        29.34F WCI  23
JORDAN           N/A     28  25  88 CALM      29.36F
SIDNEY         CLOUDY    35  28  75 W10       29.32F WCI  27
WOLF POINT     CLOUDY    30  26  85 SW6       29.35F WCI  24
PLENTYWOOD       N/A     30  27  86 NW7       29.31S WCI  23
POPLAR           N/A     30  27  86 W7        29.35S WCI  23
$$

MTZ028>42-056>058-210500-
SOUTHCENTRAL AND SOUTHEAST MONTANA

CITY           SKY/WX    TMP DP  RH WIND       PRES   REMARKS
BAKER          CLOUDY    32  29  88 W10       29.35S WCI  24
BILLINGS       CLEAR     31  26  82 SW12      29.37F WCI  22
LIVINGSTON     CLEAR     21  14  74 NW10      29.34F WCI  10
MILES CITY     CLOUDY    34  31  88 CALM      29.38S
BIG TIMBER     CLEAR     30  21  69 W5        29.38S
FORSYTH          N/A     34  34 100 CALM      29.38F VSB 1
HARLOWTON        N/A     21  17  85 N5        29.35F
LAUREL           N/A     26  17  68 SW6       29.41F WCI  19
$$

REGIONAL REPORTS...DAKOTAS

CITY           SKY/WX    TMP DP  RH WIND       PRES   REMARKS
WILLISTON      CLOUDY    26  23  88 SE3       29.32S
MINOT          CLOUDY    28  27  96 S5        29.33F FOG
DICKINSON      PTCLDY    23  21  92 W9        29.29S WCI  13
BEACH          CLOUDY    32  28  86 W14       29.35S WCI  22
CROSBY           N/A     14  12  92 SE3       29.33R
TIOGA            N/A     10  10 100 W6        29.32S FOG     WCI   1
WATFORD CITY     N/A     18  18 100 SW5       29.32S
BISMARCK       CLOUDY    31  30  96 W3        29.34R FOG
GRAND FORKS    CLOUDY    36  33  89 SE10      29.44S FOG     WCI  28
FARGO          CLOUDY    39  35  86 SE12      29.42F WCI  32
BUFFALO SD       N/A     35  30  82 NW16      29.27S WCI  25
RAPID CITY     CLOUDY    37  31  78 NW12      29.35R WCI  29
$$

REGIONAL REPORTS...WYOMING/IDAHO/WASHINGTON

CITY           SKY/WX    TMP DP  RH WIND       PRES   REMARKS
GILLETTE       CLOUDY    29  29 100 W5        29.38F
SHERIDAN       CLOUDY    31  26  82 VRB7      29.38F WCI  24
BUFFALO WY     CLOUDY    34  28  79 CALM      29.38F
CODY           CLOUDY    16  14  92 S8        29.38F WCI   5
YELLOWSTONE LA   N/A      8   6  92 CALM      29.36F
IDAHO FALLS    CLOUDY    12  10  92 N5        29.35S
SALMON         CLOUDY    12  10  92 CALM      29.34S
BOISE          CLOUDY    37  29  72 SE10      29.27R WCI  30
SPOKANE        MOCLDY    36  30  79 NE10      29.22S WCI  28
$$

REGIONAL REPORTS...ALBERTA

CITY           SKY/WX    TMP DP  RH WIND       PRES   REMARKS
EDMONTON       CLEAR     23  14  68 SE2         N/A
CALGARY        CLEAR     21  14  73 VRB2      29.31R
LETHBRIDGE     CLEAR     27  21  80 S7        29.31S WCI  19
MEDICINE HAT   CLEAR     25  21  86 SW8       29.33F WCI  16
WATERTON GATE    N/A     25  18  74 SW5         N/A
CARDSTON         N/A     25  18  74 SW1         N/A
MILK RIVER       N/A     25  21  86 SE2         N/A
$$

REGIONAL REPORTS...SASKATCHEWAN

CITY           SKY/WX    TMP DP  RH WIND       PRES   REMARKS
SWIFT CURRENT  MOCLDY    30  27  86 W10       29.29F WCI  21
REGINA         MOCLDY    25  23  93 SE3       29.29F
SASKATOON      CLOUDY    30  28  93 NE5       29.34S
CYPRESS HILLS    N/A     27  18  69 W2          N/A
VAL MARIE        N/A     23  19  86 N2          N/A
ROCKGLEN         N/A     34  27  75 W12         N/A  WCI  25
ASSINIBOIA       N/A     16  16 100 W1          N/A
$$




USA.gov is the U.S. government's official web portal to all federal, state and local government web resources and services.